GJS4582 KEWR-KRIC

Flight info

Callsign GJS4582
Flight time 0h 59m
Altitude 20000
Route ELVAE NECCK WHITE Q409 TRPOD T303 JAMIE
Aircraft CRJ7/M-SDFGIRWY/S

Departure

Time 2026-04-25 22:26
Airport Newark Liberty International Airport (KEWR)

Arrival

Time 2026-04-25 23:26
Airport Richmond International Airport (KRIC)
Time Latitude Longitude Altitude Speed Heading
2026-04-25 21:31 40.69652 -74.17533 19 ft 0 kts 310°
2026-04-25 21:37 40.69653 -74.17533 19 ft 0 kts 310°
2026-04-25 21:42 40.69653 -74.17534 19 ft 0 kts 310°
2026-04-25 21:52 40.69649 -74.17528 19 ft 0 kts 310°
2026-04-25 21:58 40.69649 -74.17527 19 ft 2 kts 310°
2026-04-25 21:59 40.69638 -74.17511 20 ft 2 kts 311°
2026-04-25 21:59 40.69626 -74.17496 19 ft 2 kts 336°
2026-04-25 21:59 40.69612 -74.17492 20 ft 1 kts 359°
2026-04-25 22:01 40.69615 -74.17491 22 ft 1 kts 14°
2026-04-25 22:02 40.69635 -74.17475 22 ft 4 kts 41°
2026-04-25 22:02 40.69657 -74.17449 18 ft 4 kts 43°
2026-04-25 22:02 40.69675 -74.17426 19 ft 5 kts 42°
2026-04-25 22:02 40.69700 -74.17397 19 ft 4 kts 41°
2026-04-25 22:03 40.69714 -74.17380 21 ft 1 kts 40°
2026-04-25 22:03 40.69715 -74.17380 21 ft 0 kts 40°
2026-04-25 22:05 40.69714 -74.17380 21 ft 0 kts 40°
2026-04-25 22:11 40.69715 -74.17380 19 ft 0 kts 40°
2026-04-25 22:13 40.69723 -74.17372 21 ft 1 kts 37°
2026-04-25 22:13 40.69723 -74.17371 21 ft 0 kts 37°
2026-04-25 22:15 40.69730 -74.17364 22 ft 2 kts 37°
2026-04-25 22:15 40.69736 -74.17359 22 ft 0 kts 37°
2026-04-25 22:15 40.69756 -74.17338 20 ft 6 kts 38°
2026-04-25 22:16 40.69816 -74.17264 20 ft 6 kts 43°
2026-04-25 22:16 40.69836 -74.17220 20 ft 5 kts 89°
2026-04-25 22:16 40.69826 -74.17181 20 ft 3 kts 127°
2026-04-25 22:16 40.69810 -74.17159 19 ft 4 kts 137°
2026-04-25 22:17 40.69783 -74.17130 18 ft 7 kts 143°
2026-04-25 22:17 40.69739 -74.17091 18 ft 8 kts 148°
2026-04-25 22:17 40.69687 -74.17053 18 ft 10 kts 153°
2026-04-25 22:17 40.69626 -74.17019 21 ft 11 kts 160°
2026-04-25 22:18 40.69552 -74.16992 17 ft 11 kts 168°
2026-04-25 22:18 40.69482 -74.16978 20 ft 9 kts 174°
2026-04-25 22:18 40.69423 -74.16974 18 ft 9 kts 181°
2026-04-25 22:18 40.69356 -74.16980 18 ft 12 kts 187°
2026-04-25 22:19 40.69271 -74.17008 16 ft 13 kts 200°
2026-04-25 22:19 40.69186 -74.17059 16 ft 14 kts 206°
2026-04-25 22:19 40.69093 -74.17117 15 ft 15 kts 206°
2026-04-25 22:19 40.69003 -74.17174 15 ft 13 kts 206°
2026-04-25 22:20 40.68930 -74.17221 18 ft 10 kts 206°
2026-04-25 22:20 40.68863 -74.17263 19 ft 11 kts 205°
2026-04-25 22:20 40.68789 -74.17310 20 ft 14 kts 206°
2026-04-25 22:20 40.68700 -74.17367 22 ft 13 kts 206°
2026-04-25 22:21 40.68622 -74.17417 24 ft 13 kts 206°
2026-04-25 22:21 40.68531 -74.17475 21 ft 15 kts 206°
2026-04-25 22:21 40.68442 -74.17532 21 ft 13 kts 205°
2026-04-25 22:21 40.68369 -74.17578 19 ft 11 kts 205°
2026-04-25 22:22 40.68298 -74.17622 17 ft 12 kts 206°
2026-04-25 22:22 40.68225 -74.17669 16 ft 11 kts 206°
2026-04-25 22:22 40.68152 -74.17716 17 ft 13 kts 206°
2026-04-25 22:22 40.68073 -74.17766 16 ft 12 kts 206°
2026-04-25 22:23 40.67980 -74.17825 17 ft 15 kts 206°
2026-04-25 22:23 40.67896 -74.17879 19 ft 12 kts 206°
2026-04-25 22:23 40.67819 -74.17928 18 ft 14 kts 205°
2026-04-25 22:23 40.67736 -74.17980 18 ft 12 kts 206°
2026-04-25 22:24 40.67670 -74.18022 18 ft 9 kts 206°
2026-04-25 22:24 40.67627 -74.18048 18 ft 5 kts 191°
2026-04-25 22:24 40.67612 -74.18048 18 ft 0 kts 168°
2026-04-25 22:24 40.67610 -74.18047 18 ft 3 kts 164°
2026-04-25 22:25 40.67580 -74.18012 17 ft 9 kts 124°
2026-04-25 22:25 40.67574 -74.17932 19 ft 11 kts 56°
2026-04-25 22:25 40.67666 -74.17861 18 ft 30 kts 26°
2026-04-25 22:25 40.68093 -74.17588 15 ft 104 kts 26°
2026-04-25 22:26 40.68897 -74.17079 222 ft 139 kts 31°
2026-04-25 22:26 40.69766 -74.16516 966 ft 142 kts 33°
2026-04-25 22:26 40.70661 -74.15790 1518 ft 159 kts 42°
2026-04-25 22:26 40.71561 -74.14819 2073 ft 177 kts 44°
2026-04-25 22:27 40.72548 -74.13675 2635 ft 203 kts 45°
2026-04-25 22:27 40.73670 -74.12310 3117 ft 234 kts 46°
2026-04-25 22:27 40.74944 -74.10716 3324 ft 269 kts 45°
2026-04-25 22:27 40.76513 -74.09450 3864 ft 260 kts 18°
2026-04-25 22:28 40.78330 -74.09288 3979 ft 272 kts 347°
2026-04-25 22:28 40.80009 -74.10339 4912 ft 264 kts 316°
2026-04-25 22:28 40.81078 -74.12253 5878 ft 257 kts 288°
2026-04-25 22:28 40.81260 -74.14520 6764 ft 253 kts 259°
2026-04-25 22:29 40.80502 -74.16603 7546 ft 257 kts 231°
2026-04-25 22:29 40.79168 -74.18235 8296 ft 264 kts 222°
2026-04-25 22:29 40.77653 -74.19663 9006 ft 272 kts 216°
2026-04-25 22:30 40.73857 -74.21040 10239 ft 296 kts 196°
2026-04-25 22:30 40.71790 -74.21608 10674 ft 305 kts 200°
2026-04-25 22:30 40.69763 -74.22361 11289 ft 308 kts 202°
2026-04-25 22:30 40.68370 -74.22893 11502 ft 318 kts 202°
2026-04-25 22:31 40.65485 -74.23977 12255 ft 326 kts 201°
2026-04-25 22:31 40.63276 -74.24757 12876 ft 330 kts 201°
2026-04-25 22:31 40.61050 -74.25522 13473 ft 334 kts 200°
2026-04-25 22:31 40.59541 -74.26036 13884 ft 337 kts 200°
2026-04-25 22:32 40.57256 -74.26815 14419 ft 340 kts 200°
2026-04-25 22:32 40.54938 -74.27573 14934 ft 346 kts 195°
2026-04-25 22:32 40.52486 -74.27419 15425 ft 365 kts 168°
2026-04-25 22:32 40.50097 -74.26064 15746 ft 378 kts 156°
2026-04-25 22:33 40.47756 -74.24497 15898 ft 387 kts 156°
2026-04-25 22:33 40.45283 -74.22958 15958 ft 393 kts 159°
2026-04-25 22:33 40.42762 -74.21614 15982 ft 387 kts 163°
2026-04-25 22:33 40.40323 -74.20234 15972 ft 389 kts 150°
2026-04-25 22:34 40.38369 -74.17790 15979 ft 391 kts 124°
2026-04-25 22:34 40.37174 -74.14583 15991 ft 387 kts 110°
2026-04-25 22:34 40.36232 -74.11335 15994 ft 384 kts 109°
2026-04-25 22:34 40.35332 -74.08022 15993 ft 382 kts 108°
2026-04-25 22:35 40.34434 -74.04739 15987 ft 381 kts 112°
2026-04-25 22:35 40.32942 -74.01923 15975 ft 384 kts 138°
2026-04-25 22:35 40.30690 -74.00045 15984 ft 382 kts 163°
2026-04-25 22:35 40.28109 -73.99464 15999 ft 373 kts 188°
2026-04-25 22:36 40.25646 -74.00240 16348 ft 361 kts 209°
2026-04-25 22:36 40.23414 -74.01654 16787 ft 360 kts 213°
2026-04-25 22:36 40.21293 -74.03388 17266 ft 356 kts 225°
2026-04-25 22:36 40.19435 -74.05480 17741 ft 356 kts 228°
2026-04-25 22:37 40.17563 -74.07653 18144 ft 359 kts 227°
2026-04-25 22:37 40.15672 -74.09766 18540 ft 362 kts 225°
2026-04-25 22:37 40.13679 -74.11851 18891 ft 365 kts 224°
2026-04-25 22:37 40.11683 -74.13885 19224 ft 367 kts 224°
2026-04-25 22:38 40.09665 -74.15954 19533 ft 369 kts 224°
2026-04-25 22:38 40.07642 -74.18037 19811 ft 372 kts 224°
2026-04-25 22:38 40.05615 -74.20119 19949 ft 378 kts 224°
2026-04-25 22:38 40.03489 -74.22245 20025 ft 387 kts 221°
2026-04-25 22:39 40.01250 -74.24226 20056 ft 396 kts 218°
2026-04-25 22:39 39.98857 -74.26100 20069 ft 399 kts 216°
2026-04-25 22:39 39.96487 -74.27897 20074 ft 394 kts 216°
2026-04-25 22:39 39.94144 -74.29669 20073 ft 384 kts 216°
2026-04-25 22:40 39.91872 -74.31446 20067 ft 375 kts 217°
2026-04-25 22:40 39.89673 -74.33191 20063 ft 369 kts 217°
2026-04-25 22:40 39.87498 -74.34913 20064 ft 368 kts 217°
2026-04-25 22:40 39.85267 -74.36684 20071 ft 378 kts 217°
2026-04-25 22:41 39.82982 -74.38492 20079 ft 388 kts 217°
2026-04-25 22:41 39.80682 -74.40302 20078 ft 388 kts 216°
2026-04-25 22:41 39.78377 -74.42123 20073 ft 385 kts 217°
2026-04-25 22:41 39.76092 -74.43920 20067 ft 382 kts 217°
2026-04-25 22:42 39.73812 -74.45716 20057 ft 380 kts 217°
2026-04-25 22:42 39.71569 -74.47484 20051 ft 381 kts 216°
2026-04-25 22:42 39.69289 -74.49277 20028 ft 381 kts 216°
2026-04-25 22:42 39.67031 -74.51051 20024 ft 382 kts 216°
2026-04-25 22:43 39.64747 -74.52844 20023 ft 382 kts 217°
2026-04-25 22:43 39.62464 -74.54640 20022 ft 383 kts 216°
2026-04-25 22:43 39.60195 -74.56416 20022 ft 383 kts 216°
2026-04-25 22:43 39.57902 -74.58212 20023 ft 383 kts 216°
2026-04-25 22:44 39.55635 -74.59986 20024 ft 384 kts 216°
2026-04-25 22:44 39.53365 -74.61768 20022 ft 384 kts 216°
2026-04-25 22:44 39.51055 -74.63571 20023 ft 385 kts 216°
2026-04-25 22:44 39.48760 -74.65362 20025 ft 383 kts 216°
2026-04-25 22:45 39.46500 -74.67126 20023 ft 380 kts 216°
2026-04-25 22:45 39.44234 -74.68893 20022 ft 378 kts 216°
2026-04-25 22:45 39.41999 -74.70632 20023 ft 375 kts 216°
2026-04-25 22:45 39.39772 -74.72369 20019 ft 377 kts 216°
2026-04-25 22:46 39.37512 -74.74129 20021 ft 381 kts 216°
2026-04-25 22:46 39.35218 -74.75910 20022 ft 385 kts 216°
2026-04-25 22:46 39.32924 -74.77690 20021 ft 388 kts 216°
2026-04-25 22:46 39.30603 -74.79492 20009 ft 389 kts 216°
2026-04-25 22:47 39.28280 -74.81294 20007 ft 386 kts 216°
2026-04-25 22:47 39.26003 -74.83060 20005 ft 383 kts 216°
2026-04-25 22:47 39.23736 -74.84817 20003 ft 381 kts 216°
2026-04-25 22:47 39.21465 -74.86575 19999 ft 378 kts 216°
2026-04-25 22:48 39.19197 -74.88327 19996 ft 376 kts 216°
2026-04-25 22:48 39.16968 -74.90049 19994 ft 376 kts 216°
2026-04-25 22:48 39.14703 -74.91798 19994 ft 378 kts 216°
2026-04-25 22:48 39.12453 -74.93535 19994 ft 380 kts 216°
2026-04-25 22:49 39.10186 -74.95281 19996 ft 382 kts 216°
2026-04-25 22:49 39.07887 -74.97052 19997 ft 384 kts 216°
2026-04-25 22:49 39.05596 -74.98815 20000 ft 386 kts 216°
2026-04-25 22:49 39.03286 -75.00591 19997 ft 383 kts 216°
2026-04-25 22:50 39.01015 -75.02337 19993 ft 381 kts 216°
2026-04-25 22:50 38.98744 -75.04088 19993 ft 379 kts 216°
2026-04-25 22:50 38.96472 -75.05827 19990 ft 377 kts 216°
2026-04-25 22:50 38.94255 -75.07528 19992 ft 375 kts 216°
2026-04-25 22:51 38.91994 -75.09260 19989 ft 377 kts 216°
2026-04-25 22:51 38.89725 -75.10996 19990 ft 379 kts 216°
2026-04-25 22:51 38.87491 -75.12704 19992 ft 376 kts 216°
2026-04-25 22:51 38.85243 -75.14426 19969 ft 375 kts 216°
2026-04-25 22:52 38.82999 -75.16138 19966 ft 376 kts 215°
2026-04-25 22:52 38.80740 -75.17863 19966 ft 378 kts 215°
2026-04-25 22:52 38.78470 -75.19596 19968 ft 386 kts 215°
2026-04-25 22:52 38.76906 -75.20790 19971 ft 390 kts 215°
2026-04-25 22:53 38.73817 -75.23139 19968 ft 383 kts 215°
2026-04-25 22:53 38.71556 -75.24861 19964 ft 380 kts 215°
2026-04-25 22:53 38.69276 -75.26593 19959 ft 380 kts 215°
2026-04-25 22:53 38.66983 -75.28337 19967 ft 383 kts 215°
2026-04-25 22:54 38.64690 -75.30079 19966 ft 386 kts 215°
2026-04-25 22:54 38.62363 -75.31842 19960 ft 385 kts 215°
2026-04-25 22:54 38.60083 -75.33574 19963 ft 384 kts 215°
2026-04-25 22:54 38.57785 -75.35314 19963 ft 384 kts 215°
2026-04-25 22:55 38.55472 -75.37063 19955 ft 384 kts 215°
2026-04-25 22:55 38.53189 -75.38793 19959 ft 384 kts 215°
2026-04-25 22:55 38.50875 -75.40541 19958 ft 384 kts 215°
2026-04-25 22:55 38.48567 -75.42284 19944 ft 383 kts 215°
2026-04-25 22:56 38.46294 -75.44000 19945 ft 383 kts 214°
2026-04-25 22:56 38.43976 -75.45747 19939 ft 383 kts 214°
2026-04-25 22:56 38.41701 -75.47463 19945 ft 383 kts 214°
2026-04-25 22:56 38.39416 -75.49184 19945 ft 383 kts 214°
2026-04-25 22:57 38.37120 -75.50910 19942 ft 374 kts 215°
2026-04-25 22:57 38.34893 -75.52587 19818 ft 377 kts 214°
2026-04-25 22:57 38.32554 -75.54195 19561 ft 385 kts 211°
2026-04-25 22:57 38.30107 -75.55663 19301 ft 388 kts 207°
2026-04-25 22:58 38.27628 -75.57017 19052 ft 391 kts 207°
2026-04-25 22:58 38.25131 -75.58361 18798 ft 385 kts 206°
2026-04-25 22:58 38.22704 -75.59668 18534 ft 380 kts 207°
2026-04-25 22:58 38.20277 -75.61017 18272 ft 375 kts 207°
2026-04-25 22:59 38.17924 -75.62335 17987 ft 371 kts 207°
2026-04-25 22:59 38.15567 -75.63656 17688 ft 367 kts 208°
2026-04-25 22:59 38.13223 -75.64973 17419 ft 364 kts 208°
2026-04-25 22:59 38.10937 -75.66254 17136 ft 361 kts 208°
2026-04-25 23:00 38.08638 -75.67542 16879 ft 358 kts 208°
2026-04-25 23:00 38.06387 -75.68801 16617 ft 355 kts 208°
2026-04-25 23:00 38.04120 -75.70072 16352 ft 353 kts 208°
2026-04-25 23:00 38.01894 -75.71314 16101 ft 351 kts 208°
2026-04-25 23:01 37.99627 -75.72584 15851 ft 355 kts 208°
2026-04-25 23:01 37.97386 -75.73885 15613 ft 359 kts 209°
2026-04-25 23:01 37.95107 -75.75278 15368 ft 363 kts 210°
2026-04-25 23:01 37.92842 -75.76665 15123 ft 366 kts 210°
2026-04-25 23:02 37.90559 -75.78059 14878 ft 361 kts 210°
2026-04-25 23:02 37.88297 -75.79443 14638 ft 359 kts 210°
2026-04-25 23:02 37.86049 -75.80813 14395 ft 356 kts 210°
2026-04-25 23:02 37.83841 -75.82164 14152 ft 354 kts 210°
2026-04-25 23:03 37.81613 -75.83524 13915 ft 352 kts 210°
2026-04-25 23:03 37.79430 -75.84854 13680 ft 351 kts 210°
2026-04-25 23:03 37.77242 -75.86184 13411 ft 342 kts 210°
2026-04-25 23:03 37.75149 -75.87458 13152 ft 333 kts 210°
2026-04-25 23:04 37.73069 -75.88723 12884 ft 325 kts 210°
2026-04-25 23:04 37.71718 -75.89544 12702 ft 320 kts 210°
2026-04-25 23:04 37.69048 -75.91172 12362 ft 322 kts 210°
2026-04-25 23:04 37.67032 -75.92396 12149 ft 323 kts 210°
2026-04-25 23:05 37.65010 -75.93622 12041 ft 317 kts 210°
2026-04-25 23:05 37.63065 -75.94800 11997 ft 310 kts 210°
2026-04-25 23:05 37.61114 -75.95982 11963 ft 307 kts 210°
2026-04-25 23:05 37.59209 -75.97137 11950 ft 306 kts 210°
2026-04-25 23:06 37.57288 -75.98304 11944 ft 304 kts 210°
2026-04-25 23:06 37.55378 -75.99464 11951 ft 307 kts 210°
2026-04-25 23:06 37.53438 -76.00646 11951 ft 307 kts 210°
2026-04-25 23:06 37.51537 -76.01805 11945 ft 306 kts 210°
2026-04-25 23:07 37.49626 -76.02973 11940 ft 304 kts 210°
2026-04-25 23:07 37.47871 -76.04402 11927 ft 296 kts 230°
2026-04-25 23:07 37.46814 -76.06514 11860 ft 289 kts 252°
2026-04-25 23:07 37.46192 -76.08927 11629 ft 287 kts 256°
2026-04-25 23:08 37.45679 -76.11352 11387 ft 284 kts 260°
2026-04-25 23:08 37.45289 -76.13781 11139 ft 281 kts 262°
2026-04-25 23:08 37.44954 -76.16180 10896 ft 279 kts 262°
2026-04-25 23:08 37.44633 -76.18593 10656 ft 278 kts 262°
2026-04-25 23:09 37.44332 -76.20973 10414 ft 278 kts 263°
2026-04-25 23:09 37.44044 -76.23380 10179 ft 277 kts 263°
2026-04-25 23:09 37.43761 -76.25757 9969 ft 275 kts 262°
2026-04-25 23:09 37.43446 -76.28131 9751 ft 273 kts 261°
2026-04-25 23:10 37.43111 -76.30455 9510 ft 271 kts 261°
2026-04-25 23:10 37.42773 -76.32792 9279 ft 269 kts 261°
2026-04-25 23:10 37.42435 -76.35120 9042 ft 268 kts 261°
2026-04-25 23:10 37.42102 -76.37413 8813 ft 266 kts 261°
2026-04-25 23:11 37.41774 -76.39674 8582 ft 265 kts 261°
2026-04-25 23:11 37.41440 -76.41964 8339 ft 263 kts 261°
2026-04-25 23:11 37.41113 -76.44199 8139 ft 262 kts 260°
2026-04-25 23:11 37.40781 -76.46465 7905 ft 261 kts 261°
2026-04-25 23:12 37.40457 -76.48686 7682 ft 259 kts 260°
2026-04-25 23:12 37.40240 -76.50171 7539 ft 259 kts 261°
2026-04-25 23:12 37.39911 -76.52399 7308 ft 257 kts 260°
2026-04-25 23:12 37.39584 -76.54617 7093 ft 256 kts 260°
2026-04-25 23:13 37.39265 -76.56795 6890 ft 254 kts 260°
2026-04-25 23:13 37.38945 -76.58979 6673 ft 252 kts 260°
2026-04-25 23:13 37.38626 -76.61156 6478 ft 256 kts 260°
2026-04-25 23:13 37.38305 -76.63365 6271 ft 261 kts 260°
2026-04-25 23:14 37.37976 -76.65630 6053 ft 263 kts 261°
2026-04-25 23:14 37.37652 -76.67890 5836 ft 264 kts 260°
2026-04-25 23:14 37.37332 -76.70121 5612 ft 254 kts 260°
2026-04-25 23:14 37.37024 -76.72270 5385 ft 249 kts 260°
2026-04-25 23:15 37.36713 -76.74452 5164 ft 257 kts 260°
2026-04-25 23:15 37.36400 -76.76675 4946 ft 260 kts 261°
2026-04-25 23:15 37.36080 -76.78929 4730 ft 259 kts 261°
2026-04-25 23:15 37.35764 -76.81147 4517 ft 261 kts 261°
2026-04-25 23:16 37.35442 -76.83406 4333 ft 259 kts 261°
2026-04-25 23:16 37.35132 -76.85579 4158 ft 249 kts 260°
2026-04-25 23:16 37.34828 -76.87709 3952 ft 241 kts 260°
2026-04-25 23:16 37.34535 -76.89793 3764 ft 247 kts 261°
2026-04-25 23:17 37.34238 -76.91890 3581 ft 241 kts 260°
2026-04-25 23:17 37.33957 -76.93918 3500 ft 225 kts 260°
2026-04-25 23:17 37.33690 -76.95814 3365 ft 225 kts 260°
2026-04-25 23:17 37.33408 -76.97775 3131 ft 227 kts 261°
2026-04-25 23:18 37.33133 -76.99744 2893 ft 232 kts 261°
2026-04-25 23:18 37.32855 -77.01747 2657 ft 236 kts 261°
2026-04-25 23:18 37.32576 -77.03774 2428 ft 229 kts 261°
2026-04-25 23:18 37.32311 -77.05715 2209 ft 227 kts 260°
2026-04-25 23:19 37.32042 -77.07672 1956 ft 227 kts 261°
2026-04-25 23:19 37.31767 -77.09675 1811 ft 235 kts 260°
2026-04-25 23:19 37.31499 -77.11630 1761 ft 216 kts 260°
2026-04-25 23:19 37.31241 -77.13459 1711 ft 215 kts 262°
2026-04-25 23:20 37.31207 -77.15301 1726 ft 207 kts 284°
2026-04-25 23:20 37.31920 -77.16727 1713 ft 192 kts 324°
2026-04-25 23:20 37.32905 -77.17534 1779 ft 183 kts 330°
2026-04-25 23:20 37.33961 -77.18338 1848 ft 174 kts 331°
2026-04-25 23:21 37.34993 -77.19113 1818 ft 172 kts 329°
2026-04-25 23:21 37.35931 -77.19816 1762 ft 164 kts 331°
2026-04-25 23:21 37.36883 -77.20549 1767 ft 161 kts 331°
2026-04-25 23:21 37.37823 -77.21268 1749 ft 154 kts 330°
2026-04-25 23:22 37.38722 -77.21972 1752 ft 150 kts 328°
2026-04-25 23:22 37.39583 -77.22667 1796 ft 148 kts 329°
2026-04-25 23:22 37.40463 -77.23370 1849 ft 149 kts 329°
2026-04-25 23:23 37.42239 -77.24811 1814 ft 145 kts 329°
2026-04-25 23:23 37.43050 -77.25464 1794 ft 144 kts 329°
2026-04-25 23:23 37.43935 -77.26167 1639 ft 154 kts 330°
2026-04-25 23:23 37.44831 -77.26890 1401 ft 151 kts 329°
2026-04-25 23:24 37.45662 -77.27559 1186 ft 144 kts 329°
2026-04-25 23:24 37.46527 -77.28252 954 ft 145 kts 330°
2026-04-25 23:24 37.47368 -77.28934 773 ft 143 kts 331°
2026-04-25 23:24 37.48206 -77.29609 540 ft 141 kts 330°
2026-04-25 23:25 37.49043 -77.30279 372 ft 144 kts 332°
2026-04-25 23:25 37.49864 -77.30924 187 ft 134 kts 332°
2026-04-25 23:25 37.50534 -77.31446 176 ft 89 kts 328°
2026-04-25 23:25 37.50941 -77.31771 174 ft 59 kts 327°
2026-04-25 23:26 37.51269 -77.32037 176 ft 46 kts 327°
2026-04-25 23:26 37.51507 -77.32228 176 ft 30 kts 328°
2026-04-25 23:26 37.51624 -77.32324 176 ft 11 kts 322°
2026-04-25 23:26 37.51639 -77.32383 176 ft 2 kts 252°
2026-04-25 23:27 37.51638 -77.32385 176 ft 0 kts 252°
2026-04-25 23:27 37.51634 -77.32412 175 ft 8 kts 266°
2026-04-25 23:27 37.51637 -77.32488 175 ft 8 kts 273°
2026-04-25 23:27 37.51638 -77.32545 174 ft 5 kts 271°
2026-04-25 23:28 37.51639 -77.32591 174 ft 5 kts 271°
2026-04-25 23:28 37.51636 -77.32644 174 ft 7 kts 252°
2026-04-25 23:28 37.51597 -77.32682 174 ft 8 kts 193°
2026-04-25 23:28 37.51543 -77.32698 174 ft 8 kts 193°
2026-04-25 23:29 37.51480 -77.32717 174 ft 10 kts 193°
2026-04-25 23:29 37.51416 -77.32736 174 ft 10 kts 193°
2026-04-25 23:29 37.51345 -77.32757 174 ft 11 kts 193°
2026-04-25 23:29 37.51280 -77.32777 174 ft 9 kts 193°
2026-04-25 23:30 37.51226 -77.32793 174 ft 7 kts 193°
2026-04-25 23:30 37.51163 -77.32812 174 ft 10 kts 193°
2026-04-25 23:30 37.51097 -77.32831 174 ft 10 kts 193°
2026-04-25 23:30 37.51023 -77.32854 174 ft 11 kts 193°
2026-04-25 23:31 37.50957 -77.32873 174 ft 10 kts 193°
2026-04-25 23:31 37.50892 -77.32893 174 ft 10 kts 193°
2026-04-25 23:31 37.50817 -77.32915 174 ft 11 kts 193°
2026-04-25 23:31 37.50751 -77.32936 174 ft 9 kts 194°
2026-04-25 23:32 37.50696 -77.32952 174 ft 8 kts 193°
2026-04-25 23:32 37.50640 -77.32969 174 ft 9 kts 193°
2026-04-25 23:32 37.50579 -77.32987 174 ft 8 kts 193°
2026-04-25 23:32 37.50524 -77.33004 174 ft 10 kts 194°
2026-04-25 23:33 37.50467 -77.33027 174 ft 8 kts 211°
2026-04-25 23:33 37.50450 -77.33077 174 ft 5 kts 275°
2026-04-25 23:33 37.50456 -77.33115 174 ft 4 kts 282°
2026-04-25 23:33 37.50462 -77.33149 174 ft 4 kts 282°
2026-04-25 23:34 37.50468 -77.33182 174 ft 3 kts 282°
2026-04-25 23:34 37.50482 -77.33223 174 ft 7 kts 308°
2026-04-25 23:34 37.50515 -77.33258 174 ft 6 kts 326°
2026-04-25 23:34 37.50549 -77.33271 174 ft 4 kts
2026-04-25 23:35 37.50577 -77.33266 174 ft 4 kts
2026-04-25 23:35 37.50604 -77.33262 174 ft 3 kts
2026-04-25 23:35 37.50613 -77.33262 174 ft 0 kts
2026-04-25 23:40 37.50617 -77.33261 174 ft 2 kts
2026-04-25 23:40 37.50635 -77.33261 174 ft 3 kts
2026-04-25 23:40 37.50655 -77.33260 174 ft 3 kts
2026-04-25 23:41 37.50680 -77.33258 174 ft 3 kts
2026-04-25 23:41 37.50701 -77.33254 174 ft 3 kts 11°
2026-04-25 23:41 37.50715 -77.33245 174 ft 2 kts 47°
2026-04-25 23:41 37.50717 -77.33242 174 ft 0 kts 70°
2026-04-25 23:42 37.50717 -77.33238 174 ft 0 kts 89°
2026-04-25 23:42 37.50716 -77.33232 174 ft 0 kts 101°
2026-04-25 23:42 37.50716 -77.33229 174 ft 0 kts 101°